Date,TemperatureHighF,TemperatureAvgF,TemperatureLowF,DewpointHighF,DewpointAvgF,DewpointLowF,HumidityHigh,HumidityAvg,HumidityLow,PressureMaxIn,PressureMinIn,WindSpeedMaxMPH,WindSpeedAvgMPH,GustSpeedMaxMPH,PrecipitationSumIn
2013-11-1,80.4,64.8,52.3,64.6,58.4,50.9,97,82,51,29.94,29.79,0,0,4,0.06
2013-11-2,72.9,63.1,52.5,56.2,48.1,42.9,80,60,35,30.19,29.94,2,0,6,0.00
2013-11-3,71.3,57.5,44.4,56.2,49.7,41.9,92,77,54,30.18,30.04,0,0,4,0.00
2013-11-4,68.5,63.8,55.7,67.0,61.3,50.9,96,92,84,30.06,29.95,1,0,4,0.31
2013-11-5,77.5,71.3,66.8,73.3,69.3,65.6,96,93,82,30.01,29.92,0,0,4,0.09
2013-11-6,78.8,68.5,54.4,74.3,64.4,47.3,97,87,70,30.23,29.94,2,0,6,0.00
2013-11-7,66.0,56.0,47.7,47.3,43.0,39.9,78,63,43,30.37,30.22,2,0,6,0.00
2013-11-8,66.1,56.1,47.6,48.6,45.1,40.9,86,68,40,30.34,30.15,1,0,10,0.00
2013-11-9,70.5,61.2,51.9,60.0,54.4,47.8,92,79,66,30.18,30.10,0,0,4,0.00
2013-11-10,74.2,62.8,55.8,57.7,52.9,47.7,92,72,42,30.26,30.15,0,0,4,0.00
2013-11-11,74.7,61.8,52.3,58.9,54.5,50.1,94,79,54,30.23,30.10,0,0,4,0.00
2013-11-12,71.2,57.9,48.8,58.4,51.9,43.5,94,81,60,30.52,30.18,3,1,11,0.00
2013-11-13,55.8,45.3,37.2,43.2,32.3,27.5,86,62,38,30.59,30.38,1,0,6,0.00
2013-11-14,65.0,50.6,38.2,53.4,44.4,35.0,89,80,63,30.37,30.03,0,0,4,0.00
2013-11-15,78.6,65.8,54.0,66.5,60.4,50.0,95,83,62,30.02,29.86,0,0,4,0.00
2013-11-16,82.2,71.5,61.2,75.4,68.7,60.1,97,91,76,29.92,29.76,1,0,4,0.00
2013-11-17,84.2,77.2,70.6,74.8,72.7,68.8,95,87,69,29.90,29.77,2,0,4,0.00
2013-11-18,77.6,72.0,65.1,72.6,64.7,48.8,97,80,53,30.08,29.90,0,0,4,0.00
2013-11-19,70.2,62.1,54.9,54.0,48.9,44.5,84,63,53,30.10,29.99,1,0,4,0.00
2013-11-20,73.7,64.7,54.6,66.4,57.7,45.8,95,79,67,30.00,29.88,1,0,4,0.09
2013-11-21,81.7,74.1,68.1,75.7,71.8,66.5,96,93,81,30.04,29.92,1,0,4,0.04
2013-11-22,73.8,54.9,42.4,72.2,52.9,40.2,96,93,87,30.26,30.01,2,1,6,0.71
2013-11-23,48.8,45.5,41.9,46.0,42.8,39.7,95,90,78,30.35,30.24,2,1,10,0.04
2013-11-24,49.6,45.8,43.4,40.2,35.1,32.5,78,66,54,30.39,30.26,2,0,5,0.00
2013-11-25,43.4,41.4,39.3,41.6,38.9,36.4,100,91,78,30.26,29.94,2,0,6,0.92
2013-11-26,43.5,40.7,38.6,41.0,38.4,36.6,95,92,87,30.26,30.00,1,0,5,0.30
2013-11-27,50.9,40.5,33.9,36.6,31.5,29.1,87,72,45,30.42,30.26,1,0,6,0.00
2013-11-28,56.5,42.8,31.4,45.2,37.4,28.6,92,82,64,30.44,30.34,0,0,4,0.01
2013-11-29,63.2,48.2,36.8,45.8,39.6,34.8,93,74,50,30.48,30.35,0,0,4,0.00
2013-11-30,72.9,55.1,40.7,58.3,48.8,38.3,98,81,58,30.37,30.19,0,0,4,0.00